Location: Borotín
(49.5055°N, 14.6142°E)
Time: 16:25:07
(UTC+00:00)

EO 1 Del DPAF - Pass Details

Date: 27 May 2022
Orbit: 462 x 466 km, 98.0° (Epoch: 26 June)

Event Time Altitude Azimuth Distance (km) Brightness Sun altitude
Rises 01:20:53 0° 16° (NNE) 2,540 8.3 -12.5°
Reaches altitude 10° 01:22:59 10° 19° (NNE) 1,653 7.1 -12.3°
Maximum altitude 01:26:30 67° 102° (ESE) 516 3.2 -12.0°
Enters shadow 01:29:20 15° 185° (S) 1,358 4.8 -11.7°
